TimeCDT,TemperatureF,Dew PointF,Humidity,Sea Level PressureIn,VisibilityMPH,Wind Direction,Wind SpeedMPH,Gust SpeedMPH,PrecipitationIn,Events,Conditions,WindDirDegrees,DateUTC
12:02 AM,73.4,66.2,78,29.99,10.0,SE,11.5,20.7,N/A,,Overcast,130,2011-10-09 05:02:00
12:53 AM,73.0,66.9,81,29.94,10.0,SE,11.5,21.9,0.00,Rain,Light Rain,130,2011-10-09 05:53:00
1:53 AM,72.0,66.9,84,29.95,9.0,ESE,9.2,17.3,0.00,Rain,Light Rain,110,2011-10-09 06:53:00
2:41 AM,71.6,66.2,83,29.98,8.0,ESE,9.2,16.1,0.08,Rain,Light Rain,110,2011-10-09 07:41:00
2:49 AM,71.6,66.2,83,29.98,8.0,ESE,9.2,-,0.08,Rain,Light Rain,120,2011-10-09 07:49:00
2:53 AM,71.1,68.0,90,29.93,8.0,ESE,6.9,-,0.08,Rain,Light Rain,120,2011-10-09 07:53:00
3:07 AM,69.8,66.2,88,30.00,2.5,SW,12.7,16.1,0.05,Rain,Rain,230,2011-10-09 08:07:00
3:13 AM,66.2,62.6,88,30.00,1.2,Calm,Calm,-,0.13,Rain,Heavy Rain,0,2011-10-09 08:13:00
3:20 AM,66.2,62.6,88,29.98,1.0,Calm,Calm,-,0.18,Rain,Heavy Rain,0,2011-10-09 08:20:00
3:24 AM,66.2,62.6,88,29.98,1.5,NNW,4.6,-,0.19,Rain,Rain,340,2011-10-09 08:24:00
3:27 AM,66.2,62.6,88,29.98,2.0,NNW,4.6,-,0.21,Rain,Rain,340,2011-10-09 08:27:00
3:31 AM,66.2,62.6,88,30.00,1.8,Variable,4.6,-,0.25,Rain,Heavy Rain,0,2011-10-09 08:31:00
3:41 AM,64.4,62.6,94,29.99,1.0,Calm,Calm,-,0.47,Rain,Heavy Rain,0,2011-10-09 08:41:00
3:45 AM,64.4,62.6,94,29.99,0.8,North,4.6,-,0.55,Rain,Heavy Rain,360,2011-10-09 08:45:00
3:53 AM,64.0,63.0,96,29.92,1.0,North,13.8,20.7,0.71,Rain,Heavy Rain,360,2011-10-09 08:53:00
4:02 AM,62.6,60.8,94,29.99,2.0,North,10.4,20.7,0.07,Rain,Rain,10,2011-10-09 09:02:00
4:08 AM,62.6,60.8,94,29.99,1.2,North,11.5,-,0.20,Rain,Heavy Rain,10,2011-10-09 09:08:00
4:31 AM,62.6,60.8,94,30.00,1.5,NNE,15.0,20.7,0.53,Rain,Heavy Rain,30,2011-10-09 09:31:00
4:43 AM,60.8,59.0,94,30.01,1.2,NNE,12.7,21.9,0.78,Rain,Heavy Rain,20,2011-10-09 09:43:00
4:53 AM,61.0,59.0,93,29.99,1.2,NE,11.5,19.6,0.94,Rain,Heavy Rain,40,2011-10-09 09:53:00
5:10 AM,60.8,59.0,94,30.00,1.5,NNE,17.3,24.2,0.24,Rain,Heavy Rain,30,2011-10-09 10:10:00
5:19 AM,60.8,59.0,94,30.00,2.0,NNE,15.0,23.0,0.29,Rain,Heavy Rain,30,2011-10-09 10:19:00
5:30 AM,60.8,59.0,94,30.00,4.0,NE,13.8,24.2,0.30,Rain,Rain,40,2011-10-09 10:30:00
5:53 AM,61.0,59.0,93,29.98,4.0,NNE,16.1,26.5,0.34,Rain,Rain,30,2011-10-09 10:53:00
6:53 AM,61.0,59.0,93,29.98,4.0,NNE,16.1,24.2,0.21,Rain,Rain,30,2011-10-09 11:53:00
7:53 AM,61.0,59.0,93,29.96,10.0,NNE,10.4,19.6,0.05,Rain,Light Rain,20,2011-10-09 12:53:00
8:53 AM,61.0,59.0,93,29.96,10.0,NNE,12.7,-,0.00,Rain,Light Rain,30,2011-10-09 13:53:00
9:07 AM,60.8,59.0,94,30.00,10.0,NNE,11.5,18.4,0.00,,Mostly Cloudy,30,2011-10-09 14:07:00
9:39 AM,62.6,59.0,88,30.01,10.0,NE,9.2,-,0.00,,Scattered Clouds,40,2011-10-09 14:39:00
9:53 AM,62.1,59.0,90,30.00,10.0,North,9.2,-,0.00,,Mostly Cloudy,10,2011-10-09 14:53:00
10:28 AM,62.6,60.8,94,30.03,10.0,NE,11.5,-,N/A,,Overcast,50,2011-10-09 15:28:00
10:53 AM,64.0,60.1,87,29.99,10.0,NE,9.2,-,N/A,,Overcast,40,2011-10-09 15:53:00
11:27 AM,64.4,59.0,83,30.04,10.0,NE,9.2,-,N/A,,Mostly Cloudy,40,2011-10-09 16:27:00
11:53 AM,64.9,59.0,81,30.01,10.0,NE,6.9,-,N/A,,Mostly Cloudy,40,2011-10-09 16:53:00
12:53 PM,66.0,59.0,78,29.99,10.0,East,8.1,-,N/A,,Overcast,100,2011-10-09 17:53:00
1:53 PM,66.9,60.1,79,29.96,10.0,ENE,4.6,-,N/A,,Overcast,60,2011-10-09 18:53:00
2:41 PM,68.0,60.8,78,29.99,10.0,Variable,3.5,-,N/A,,Overcast,0,2011-10-09 19:41:00
2:53 PM,68.0,60.1,76,29.95,10.0,NE,4.6,-,N/A,,Overcast,40,2011-10-09 19:53:00
3:53 PM,69.1,60.1,73,29.96,10.0,North,5.8,-,N/A,,Overcast,10,2011-10-09 20:53:00
4:53 PM,68.0,60.1,76,29.96,10.0,NNE,10.4,-,N/A,,Overcast,20,2011-10-09 21:53:00
5:53 PM,69.1,60.1,73,29.96,10.0,NE,4.6,-,N/A,,Overcast,40,2011-10-09 22:53:00
6:53 PM,68.0,59.0,73,29.97,10.0,NNE,5.8,-,N/A,,Mostly Cloudy,20,2011-10-09 23:53:00
7:53 PM,66.0,60.1,81,30.00,10.0,NE,3.5,-,N/A,,Overcast,50,2011-10-10 00:53:00
8:01 PM,66.2,60.8,83,30.03,10.0,Calm,Calm,-,N/A,,Overcast,0,2011-10-10 01:01:00
8:53 PM,66.0,60.1,81,30.01,10.0,Calm,Calm,-,N/A,,Overcast,0,2011-10-10 01:53:00
9:22 PM,66.2,60.8,83,30.04,10.0,Calm,Calm,-,N/A,,Mostly Cloudy,0,2011-10-10 02:22:00
9:53 PM,66.0,61.0,84,30.02,10.0,Calm,Calm,-,N/A,,Overcast,0,2011-10-10 02:53:00
10:53 PM,66.0,61.0,84,30.03,10.0,North,3.5,-,N/A,,Overcast,10,2011-10-10 03:53:00
11:53 PM,64.9,61.0,87,30.04,10.0,NNE,4.6,-,N/A,,Overcast,20,2011-10-10 04:53:00